This is the latest recevied weather packets stored in our database for station/object N9BID. If no packets are shown the sender has not sent any weather packets the latest 10 day(s).
| Time | Temp. | Humidity | Pressure | Rain* | Wind** | Luminosity | Snow |
|---|---|---|---|---|---|---|---|
| 1778098769 | 6.67° C | 54% | 1006.1 hPa | 0 mm | - | 266 W/m² | - |
| 1778098466 | 7.22° C | 58% | 1006.2 hPa | 0 mm | - | 294 W/m² | - |
| 1778098163 | 6.67° C | 58% | 1006.1 hPa | 0 mm | - | 460 W/m² | - |
| 1778097859 | 6.67° C | 57% | 1006.3 hPa | 0 mm | - | 293 W/m² | - |
| 1778097556 | 6.67° C | 56% | 1006.4 hPa | 0 mm | - | 324 W/m² | - |
| 1778097253 | 6.67° C | 57% | 1006.2 hPa | 0 mm | - | 343 W/m² | - |
| 1778096949 | 6.67° C | 55% | 1006.4 hPa | 0 mm | - | 326 W/m² | - |
| 1778096646 | 6.67° C | 56% | 1006.2 hPa | 0 mm | - | 327 W/m² | - |
| 1778096344 | 6.67° C | 57% | 1006.4 hPa | 0 mm | - | 320 W/m² | - |
| 1778096040 | 7.22° C | 58% | 1006.3 hPa | 0 mm | - | 301 W/m² | - |
| 1778095737 | 7.22° C | 55% | 1006.5 hPa | 0 mm | - | 427 W/m² | - |
| 1778095434 | 6.67° C | 58% | 1006.3 hPa | 0 mm | - | 331 W/m² | - |
| 1778095131 | 7.22° C | 59% | 1006.4 hPa | 0 mm | - | 290 W/m² | - |
| 1778094827 | 7.22° C | 57% | 1006.4 hPa | 0 mm | - | 309 W/m² | - |
| 1778094524 | 6.67° C | 58% | 1006.3 hPa | 0 mm | - | 311 W/m² | - |
| 1778094220 | 6.67° C | 59% | 1006.4 hPa | 0 mm | - | 278 W/m² | - |
| 1778093917 | 6.67° C | 61% | 1006.1 hPa | 0 mm | - | 326 W/m² | - |
| 1778093614 | 6.67° C | 59% | 1006.4 hPa | 0 mm | - | 274 W/m² | - |
| 1778093311 | 6.67° C | 59% | 1006.4 hPa | 0 mm | - | 315 W/m² | - |
| 1778093008 | 6.67° C | 59% | 1006.5 hPa | 0 mm | - | 340 W/m² | - |
| 1778092706 | 6.11° C | 60% | 1006.3 hPa | 0 mm | - | 299 W/m² | - |
| 1778092401 | 6.11° C | 63% | 1006.5 hPa | 0 mm | - | 290 W/m² | - |
| 1778092099 | 6.11° C | 60% | 1006.5 hPa | 0 mm | - | 302 W/m² | - |
| 1778091796 | 6.11° C | 59% | 1006.5 hPa | 0 mm | - | 283 W/m² | - |
| 1778091493 | 6.11° C | 60% | 1006.5 hPa | 0 mm | - | 301 W/m² | - |
* Rain latest hour (hover to see other rain measurements)
** Current wind speed in m/s (hover to see current wind gust speed)